Location: İstanbul
(41.0082°N, 28.9784°E)
Time: 01:47:21
(UTC+03:00)

ISS - Visible Passes

Search period start: 25 April 2024 00:00
Search period end: 05 May 2024 00:00
Orbit: 411 x 417 km, 51.6° (Epoch: 24 April)

Date Brightness Start Highest point End Pass type
(mag) Time Alt. Az. Time Alt. Az. Time Alt. Az.
25 Apr -3.7 04:09:44 71° ESE 04:09:44 71° ESE 04:12:51 10° ENE visible
26 Apr -1.2 03:22:20 19° ENE 03:22:20 19° ENE 03:23:31 10° ENE visible
26 Apr -2.3 04:55:10 16° WNW 04:57:08 29° NNW 05:00:05 10° NE visible
27 Apr -3.0 04:07:38 43° NW 04:07:43 43° NNW 04:10:55 10° NE visible
28 Apr -1.6 03:19:59 26° NE 03:19:59 26° NE 03:21:37 10° NE visible
28 Apr -1.5 04:53:02 10° WNW 04:55:26 18° NNW 04:57:48 10° NNE visible
29 Apr -1.9 04:05:03 21° NW 04:05:46 23° NNW 04:08:30 10° NE visible
30 Apr -1.6 03:17:12 25° NNE 03:17:12 25° NNE 03:19:07 10° NE visible
30 Apr -1.0 04:51:41 10° NW 04:53:32 14° N 04:55:22 10° NNE visible
01 May -0.5 02:29:15 13° NE 02:29:15 13° NE 02:29:38 10° NE visible
01 May -1.2 04:02:03 12° NW 04:03:39 16° NNW 04:05:47 10° NNE visible
02 May -1.3 03:13:59 19° N 03:13:59 19° N 03:16:13 10° NNE visible
02 May -0.9 04:49:38 10° NNW 04:51:21 13° N 04:53:04 10° NE visible
03 May -0.6 02:25:51 14° NNE 02:25:51 14° NNE 02:26:36 10° NE visible
03 May -0.9 03:59:34 10° NW 04:01:17 13° N 04:03:00 10° NNE visible
04 May -1.0 03:10:24 14° NNW 03:11:10 14° N 03:13:05 10° NNE visible
04 May -0.9 04:46:43 10° NNW 04:48:50 16° NNE 04:50:57 10° NE visible
